Location: Zagreb
(45.8000°N, 16.0000°E)
Time: 10:14:40
(UTC+01:00)

BlueWalker 3 - Pass Details

Date: 13 December 2022
Orbit: 499 x 517 km, 53.2° (Epoch: 01 February)

Event Time Altitude Azimuth Distance (km) Brightness Sun altitude
Rises 16:57:08 0° 299° (WNW) 2,631 6.1 -7.8°
Reaches altitude 10° 16:59:23 10° 295° (WNW) 1,738 5.3 -8.1°
Maximum altitude 17:03:12 52° 219° (SW) 637 2.9 -8.7°
Drops below altitude 10° 17:06:59 10° 142° (SE) 1,715 4.5 -9.3°
Sets 17:09:11 0° 138° (SE) 2,593 5.4 -9.7°
